Mammoth, USA 16 day weather forecast

Slopes altitude range 2290 m - 3075m

Number of lifts: 28 Pistes: -1km

In some cases the lift and piste totals shown are for the ski domain (e.g. Three Valleys) rather than individual resort (e.g. Courchevel)

Overview

The 16 day weather forecast is fully updated 4 times every day.

    • Sun 17 FEB 2019
    • Sun 17
    • -11C -8C
    • Mon 18 FEB 2019
    • Mon 18
    • -13C -11C
    • Tue 19 FEB 2019
    • Tue 19
    • -15C -14C
    • Wed 20 FEB 2019
    • Wed 20
    • -11C -8C
    • Thu 21 FEB 2019
    • Thu 21
    • -15C -9C
    • Fri 22 FEB 2019
    • Fri 22
    • -14C -13C
    • Sat 23 FEB 2019
    • Sat 23
    • -8C -7C
    • Sun 24 FEB 2019
    • Sun 24
    • -6C -5C
    • Mon 25 FEB 2019
    • Mon 25
    • -11C -3C
    • Tue 26 FEB 2019
    • Tue 26
    • -14C -13C
    • Wed 27 FEB 2019
    • Wed 27
    • -13C -5C
    • Thu 28 FEB 2019
    • Thu 28
    • -11C -6C
    • Fri 01 MAR 2019
    • Fri 01
    • -9C -6C
    • Sat 02 MAR 2019
    • Sat 02
    • -11C -1C
    • Sun 03 MAR 2019
    • Sun 03
    • -15C -3C
    • Mon 04 MAR 2019
    • Mon 04
    • -9C -6C

Date:

Time Type 0°C level Temp Chill Snow Cloud Speed Gust Dir Press
12:00 400m -8°C -8_3 1cm 99% 3mph 4mph 1020mB
15:00 349m -11°C -11_5 1cm 100% 5mph 7mph 1018mB
18:00 830m -8°C -8_3 6cm 100% 3mph 5mph 1016mB
21:00 836m -9°C -9_4 4cm 100% 4mph 6mph 1015mB
0:00 1000m -9°C -9_3 6cm 100% 3mph 4mph 1015mB
3:00 541m -10°C -10_3 1cm 99% 3mph 4mph 1017mB
6:00 72m -13°C -13_7 1cm 99% 7mph 7mph 1020mB
9:00 373m -13°C -13_7 1cm 100% 7mph 7mph 1021mB
12:00 165m -11°C -11_8 0cm 100% 8mph 8mph 1022mB
15:00 0m -13°C -13_9 0cm 9% 9mph 9mph 1025mB
18:00 1433m -4°C -4_2 0cm 5% 2mph 5mph 1024mB
21:00 1598m -5°C -5_3 0cm 1% 3mph 4mph 1022mB
0:00 1393m -5°C -5_4 1cm 41% 4mph 5mph 1022mB
3:00 697m -9°C -9_5 1cm 88% 5mph 6mph 1025mB
6:00 0m -14°C -14_8 1cm 54% 8mph 8mph 1027mB
9:00 0m -15°C -15_9 0cm 1% 9mph 9mph 1027mB
12:00 0m -14°C -14_9 0cm 0% 9mph 9mph 1026mB
15:00 0m -14°C -14_9 0cm 0% 9mph 9mph 1026mB
18:00 1658m -3°C -3_1 0cm 7% 1mph 2mph 1024mB
21:00 1763m -3°C -3_5 0cm 59% 5mph 5mph 1022mB
0:00 1590m -4°C -4_4 1cm 79% 4mph 4mph 1020mB
3:00 1234m -6°C -6_2 1cm 99% 2mph 3mph 1021mB
6:00 970m -8°C -8_3 1cm 99% 3mph 3mph 1021mB
9:00 792m -9°C -9_3 0cm 100% 3mph 4mph 1019mB
12:00 368m -8°C -8_6 0cm 67% 6mph 6mph 1018mB
15:00 279m -11°C -11_6 0cm 2% 6mph 7mph 1018mB
18:00 1390m -5°C -5_5 0cm 50% 5mph 7mph 1015mB
21:00 1378m -5°C -5_8 1cm 99% 8mph 11mph 1011mB
0:00 1218m -6°C -6_7 2cm 99% 7mph 10mph 1010mB
3:00 904m -8°C -8_2 1cm 100% 2mph 2mph 1011mB
6:00 793m -9°C -9_3 2cm 100% 3mph 3mph 1013mB
9:00 337m -12°C -12_6 1cm 92% 6mph 6mph 1012mB
12:00 0m -9°C -9_7 1cm 52% 7mph 8mph 1012mB
15:00 0m -14°C -14_8 0cm 1% 8mph 8mph 1013mB
18:00 1347m -5°C -5_0 0cm 2% 0mph 4mph 1011mB
21:00 1392m -5°C -5_4 1cm 56% 4mph 5mph 1010mB
0:00 1279m -6°C -6_2 3cm 77% 2mph 4mph 1011mB
3:00 223m -12°C -12_8 1cm 48% 8mph 8mph 1016mB
6:00 32m -14°C -14_10 1cm 25% 10mph 13mph 1019mB
9:00 5m -14°C -14_9 0cm 3% 9mph 12mph 1021mB
12:00 0m -13°C -13_9 0cm 2% 9mph 10mph 1023mB
15:00 1m -14°C -14_9 0cm 0% 9mph 9mph 1025mB
18:00 1759m -2°C -2_1 0cm 0% 1mph 2mph 1024mB
21:00 1863m -2°C -2_5 0cm 0% 5mph 4mph 1023mB
0:00 1811m -3°C -3_4 1cm 45% 4mph 4mph 1022mB
3:00 1324m -6°C -6_4 1cm 87% 4mph 4mph 1025mB
6:00 1077m -7°C -7_5 0cm 88% 5mph 5mph 1026mB
9:00 891m -8°C -8_6 0cm 98% 6mph 7mph 1026mB
12:00 832m -7°C -7_7 0cm 93% 7mph 7mph 1026mB
15:00 957m -7°C -7_7 0cm 89% 7mph 7mph 1027mB
18:00 2012m -1°C -1_2 0cm 91% 2mph 2mph 1025mB
21:00 2031m -1°C -1_3 0cm 97% 3mph 2mph 1022mB
0:00 2000m -1°C -1_3 1cm 97% 3mph 3mph 1021mB
3:00 1544m -4°C -4_3 1cm 100% 3mph 4mph 1024mB
6:00 1294m -5°C -5_4 1cm 99% 4mph 5mph 1025mB
9:00 1238m -6°C -6_3 1cm 99% 3mph 4mph 1024mB
12:00 1271m -5°C -5_3 2cm 100% 3mph 3mph 1022mB
15:00 1130m -6°C -6_4 1cm 99% 4mph 5mph 1022mB
18:00 1755m -2°C -2_4 1cm 98% 4mph 5mph 1019mB
21:00 2222m -1°C -1_11 0cm 20% 11mph 28mph 1015mB
0:00 2099m -1°C -1_10 0cm 49% 10mph 21mph 1013mB
3:00 1744m -3°C -3_5 1cm 95% 5mph 8mph 1012mB
6:00 1736m -3°C -3_2 4cm 97% 2mph 4mph 1011mB
9:00 1618m -4°C -4_3 4cm 100% 3mph 5mph 1011mB
12:00 530m -3°C -3_9 4cm 73% 9mph 9mph 1013mB
15:00 42m -11°C -11_10 0cm 1% 10mph 10mph 1018mB
18:00 1123m -7°C -7_5 0cm 1% 5mph 7mph 1017mB
21:00 1470m -7°C -7_7 0cm 0% 7mph 12mph 1016mB
0:00 1432m -7°C -7_5 0cm 8% 5mph 10mph 1016mB
3:00 459m -12°C -12_6 0cm 2% 6mph 6mph 1020mB
6:00 202m -13°C -13_8 0cm 1% 8mph 8mph 1022mB
9:00 138m -14°C -14_9 0cm 0% 9mph 9mph 1023mB
12:00 126m -13°C -13_9 0cm 0% 9mph 9mph 1023mB
15:00 312m -12°C -12_9 0cm 0% 9mph 9mph 1023mB
18:00 1693m -4°C -4_5 0cm 0% 5mph 8mph 1021mB
21:00 2154m -3°C -3_7 0cm 0% 7mph 14mph 1019mB
0:00 1980m -3°C -3_9 0cm 0% 9mph 14mph 1018mB
3:00 920m -9°C -9_9 0cm 1% 9mph 10mph 1022mB
6:00 662m -10°C -10_10 0cm 0% 10mph 10mph 1023mB
Afternoon 0mm 0 1780m -5°C -5_9 0cm 0% 9mph 13mph 1021mB
Morning 0mm 0 1129m -10°C -10_2 0cm 39% 2mph 2mph 1023mB
Afternoon 0mm 0 1533m -6°C -6_4 0cm 93% 4mph 6mph 1022mB
Morning 0mm 0.0625 1262m -8°C -8_8 1cm 100% 8mph 10mph 1020mB
Afternoon 0mm 0 1573m -6°C -6_10 0cm 100% 10mph 13mph 1019mB
Morning 0mm 0 1148m -9°C -9_3 0cm 98% 3mph 5mph 1019mB
Afternoon 0mm 0 2283m -1°C -1_7 0cm 16% 7mph 9mph 1012mB
Morning 0mm 0.4375 1008m -10°C -10_10 4cm 76% 10mph 14mph 1015mB
Afternoon 0mm 0 1959m -3°C -3_9 0cm 4% 9mph 11mph 1013mB
Morning 0mm 0 1537m -7°C -7_20 0cm 86% 20mph 33mph 1008mB
Afternoon 0mm 0.1875 1149m -6°C -6_18 2cm 93% 18mph 23mph 1008mB
Morning 0.015625mm 0.4375 872m -11°C -11_1 4cm 98% 1mph 1mph 1010mB

16 day outlook at a glance

Forecast issued: 2/17/2019 1:33:54 PM

Chat

Your comments and questions. In a resort? Let us know what it's like!


Characters left 250

For terms and conditions see Readers Comments on the Cookie and privacy policy page.